FW0352 Weather Reports


Display with metric or nautical units.
time (UTC)temp
F
wind
direction
speed
MPH
gust
MPH
rain 1hr
in
rain 24hr
in
rain mn
in
humidity
%
barometer
mb
20210925010018 57 0.0 0.0 0.00 0.00 0.00 92 1019.1
20210925005018 57 0.0 0.0 0.00 0.00 0.00 93 1019.0
20210925004029 58 0.0 0.0 0.00 0.00 0.00 93 1018.7
20210925003023 58 0.0 0.0 0.00 0.00 0.00 93 1018.7
20210925002033 59 0.0 0.0 0.00 0.00 0.00 92 1018.6
20210925001033 59 0.0 0.0 0.00 0.00 0.00 90 1018.5
20210925000026 60 0.0 0.0 0.00 0.00 0.00 88 1018.2
20210924235019 61 0.0 0.0 0.00 0.00 0.00 88 1018.2
20210924234021 62 0.0 0.0 0.00 0.00 0.00 85 1018.4
20210924233021 63 0.0 0.0 0.00 0.00 0.00 81 1018.3
20210924232033 64 0.0 0.0 0.00 0.00 0.00 78 1018.3
20210924231034 65 0.0 0.0 0.00 0.00 0.00 73 1018.5
20210924230027 67 0.0 0.0 0.00 0.00 0.00 69 1018.6
20210924225018 68 0.0 0.0 0.00 0.00 0.00 66 1018.4
20210924224027 69 0.0 0.0 0.00 0.00 0.00 63 1018.3
20210924223020 71 0.0 0.0 0.00 0.00 0.00 64 1018.3
20210924222023 72 0.0 0.0 0.00 0.00 0.00 59 1018.3
20210924221033 74 0.0 0.0 0.00 0.00 0.00 56 1018.4
20210924220038 71 0.0 1.0 0.00 0.00 0.00 59 1018.4
20210924215027 73 0.0 0.0 0.00 0.00 0.00 55 1018.3
20210924214021 76 0.0 0.0 0.00 0.00 0.00 51 1018.1
20210924213021 75 275 1.0 2.0 0.00 0.00 0.00 50 1018.1
20210924212026 75 191 1.0 2.0 0.00 0.00 0.00 50 1018.1
20210924211024 75 297 1.0 3.0 0.00 0.00 0.00 44 1018.0
20210924210017 76 261 1.0 3.0 0.00 0.00 0.00 46 1018.1
20210924205020 76 173 1.0 2.0 0.00 0.00 0.00 48 1018.1
20210924204020 75 330 1.0 2.0 0.00 0.00 0.00 49 1018.1
20210924203031 76 138 2.0 4.0 0.00 0.00 0.00 47 1018.0
20210924202024 76 193 1.0 2.0 0.00 0.00 0.00 44 1018.0
20210924201023 76 28 2.0 5.0 0.00 0.00 0.00 47 1017.9
20210924200032 76 214 2.0 5.0 0.00 0.00 0.00 43 1018.0
20210924195024 77 96 1.0 2.0 0.00 0.00 0.00 46 1018.0
20210924194027 76 210 2.0 3.0 0.00 0.00 0.00 45 1018.1
20210924193018 76 239 2.0 4.0 0.00 0.00 0.00 44 1018.1
20210924192018 76 179 2.0 5.0 0.00 0.00 0.00 47 1018.1
20210924191030 76 206 1.0 3.0 0.00 0.00 0.00 46 1018.3
20210924190023 76 85 2.0 4.0 0.00 0.00 0.00 44 1018.3
20210924185016 76 174 2.0 3.0 0.00 0.00 0.00 45 1018.5
20210924184033 76 117 2.0 5.0 0.00 0.00 0.00 44 1018.7
20210924183028 76 234 2.0 5.0 0.00 0.00 0.00 47 1018.9
20210924182027 76 138 3.0 4.0 0.00 0.00 0.00 44 1019.0
20210924181017 76 78 1.0 3.0 0.00 0.00 0.00 47 1019.0
20210924180018 76 187 3.0 5.0 0.00 0.00 0.00 46 1019.1
20210924175030 76 71 2.0 5.0 0.00 0.00 0.00 46 1019.2
20210924174022 76 149 3.0 5.0 0.00 0.00 0.00 46 1019.5
20210924173032 75 71 2.0 4.0 0.00 0.00 0.00 46 1019.5
20210924172025 75 138 2.0 4.0 0.00 0.00 0.00 46 1019.6
20210924171033 75 117 3.0 6.0 0.00 0.00 0.00 48 1019.9
20210924170023 74 90 2.0 3.0 0.00 0.00 0.00 51 1020.0
20210924165021 74 220 2.0 3.0 0.00 0.00 0.00 51 1020.1
20210924164033 73 86 3.0 5.0 0.00 0.00 0.00 51 1020.3
20210924163027 73 348 3.0 4.0 0.00 0.00 0.00 51 1020.4
20210924162021 73 146 3.0 5.0 0.00 0.00 0.00 49 1020.5
20210924161024 73 96 3.0 6.0 0.00 0.00 0.00 50 1020.3
20210924160025 72 118 3.0 6.0 0.00 0.00 0.00 50 1020.5
20210924155033 72 90 3.0 6.0 0.00 0.00 0.00 51 1020.5
20210924154026 71 107 2.0 5.0 0.00 0.00 0.00 54 1020.7
20210924153017 71 200 2.0 4.0 0.00 0.00 0.00 54 1020.8
20210924152017 70 97 3.0 5.0 0.00 0.00 0.00 54 1020.8
20210924151017 70 221 3.0 4.0 0.00 0.00 0.00 55 1020.8
20210924150023 70 208 3.0 4.0 0.00 0.00 0.00 56 1020.8
20210924145016 69 67 3.0 7.0 0.00 0.00 0.00 56 1020.8
20210924144026 69 88 4.0 6.0 0.00 0.00 0.00 58 1020.5
20210924143016 68 85 2.0 4.0 0.00 0.00 0.00 60 1020.4
20210924142028 67 118 3.0 5.0 0.00 0.00 0.00 61 1020.4
20210924141019 67 78 3.0 5.0 0.00 0.00 0.00 64 1020.3
20210924140024 66 71 3.0 6.0 0.00 0.00 0.00 65 1020.2
20210924135028 65 341 2.0 3.0 0.00 0.00 0.00 69 1020.4
20210924134022 63 82 2.0 4.0 0.00 0.00 0.00 75 1020.3
20210924133022 61 53 2.0 4.0 0.00 0.00 0.00 83 1020.1
20210924132031 58 144 1.0 3.0 0.00 0.00 0.00 92 1020.0
20210924131022 56 122 1.0 3.0 0.00 0.00 0.00 97 1019.8
20210924130027 56 157 1.0 3.0 0.00 0.00 0.00 97 1019.8
20210924125017 54 107 1.0 2.0 0.00 0.00 0.00 99 1019.9
20210924124016 54 113 1.0 3.0 0.00 0.00 0.00 99 1019.8
20210924123028 53 0.0 0.0 0.00 0.00 0.00 99 1019.6
20210924122022 52 120 0.0 1.0 0.00 0.00 0.00 99 1019.5
20210924121020 52 212 1.0 2.0 0.00 0.00 0.00 99 1019.6
20210924120031 51 102 1.0 4.0 0.00 0.00 0.00 99 1019.5
20210924115018 50 74 1.0 4.0 0.00 0.00 0.00 99 1019.4
20210924114018 50 203 0.0 2.0 0.00 0.00 0.00 99 1019.4
20210924113020 49 0.0 0.0 0.00 0.00 0.00 99 1019.3
20210924112020 49 0.0 0.0 0.00 0.00 0.00 99 1019.3
20210924111018 49 0.0 0.0 0.00 0.00 0.00 99 1019.2
20210924110023 49 0.0 0.0 0.00 0.00 0.00 99 1019.1
20210924105017 49 0.0 0.0 0.00 0.00 0.00 99 1019.0
20210924104026 50 0.0 0.0 0.00 0.00 0.00 99 1018.7
20210924103018 50 0.0 0.0 0.00 0.00 0.00 99 1018.5
20210924102027 50 0.0 0.0 0.00 0.00 0.00 99 1018.4
20210924101019 50 0.0 0.0 0.00 0.00 0.00 99 1018.4
20210924100019 50 193 0.0 1.0 0.00 0.00 0.00 99 1018.3
20210924095032 50 137 1.0 3.0 0.00 0.00 0.00 99 1018.2
20210924094025 50 0.0 0.0 0.00 0.00 0.00 99 1017.8
20210924093025 50 0.0 0.0 0.00 0.00 0.00 99 1017.8
20210924084022 50 0.0 0.0 0.00 0.00 0.00 99 1017.5
20210924083033 50 0.0 0.0 0.00 0.00 0.00 99 1017.3
20210924082026 50 0.0 0.0 0.00 0.00 0.00 99 1017.2
20210924081025 50 0.0 0.0 0.00 0.00 0.00 99 1017.2
20210924080029 51 0.0 0.0 0.00 0.00 0.00 99 1017.2
20210924075020 50 0.0 0.0 0.00 0.00 0.00 99 1017.2
20210924074030 51 0.0 0.0 0.00 0.00 0.00 99 1017.1
20210924073020 51 0.0 0.0 0.00 0.00 0.00 99 1017.1
20210924072019 51 0.0 0.0 0.00 0.00 0.00 99 1017.0
20210924071024 51 0.0 0.0 0.00 0.00 0.00 99 1017.0
20210924070032 51 0.0 0.0 0.00 0.00 0.00 99 1017.1
20210924065016 51 0.0 0.0 0.00 0.00 0.00 99 1017.0
20210924064027 51 0.0 0.0 0.00 0.00 0.00 99 1016.8
20210924063025 51 0.0 0.0 0.00 0.00 0.00 99 1016.8
20210924062016 51 0.0 0.0 0.00 0.00 0.00 99 1016.9
20210924061019 52 0.0 0.0 0.00 0.00 0.00 99 1016.9
20210924060025 52 0.0 0.0 0.00 0.00 0.00 99 1017.0
20210924055029 52 0.0 0.0 0.00 0.00 0.00 99 1016.9
20210924054024 52 0.0 0.0 0.00 0.00 0.00 99 1016.9
20210924053023 52 0.0 0.0 0.00 0.00 0.00 99 1016.8
20210924052028 53 0.0 0.0 0.00 0.00 0.00 99 1016.8
20210924051018 53 0.0 0.0 0.00 0.00 0.00 98 1016.9
20210924050028 53 0.0 0.0 0.00 0.00 0.00 98 1017.0
20210924045019 53 0.0 0.0 0.00 0.00 0.00 99 1017.0
20210924044018 53 0.0 0.0 0.00 0.00 0.00 99 1017.0
20210924043030 54 0.0 0.0 0.00 0.04 0.00 99 1017.0
20210924042024 54 0.0 0.0 0.00 0.05 0.00 99 1017.0
20210924041028 54 0.0 0.0 0.00 0.06 0.00 99 1017.2
20210924040016 54 0.0 0.0 0.00 0.08 0.00 99 1017.3
20210924035029 54 0.0 0.0 0.00 0.08 0.08 99 1017.0
20210924034023 55 0.0 0.0 0.00 0.08 0.08 98 1017.0
20210924033026 55 0.0 0.0 0.00 0.08 0.08 99 1016.8
20210924032017 55 0.0 0.0 0.00 0.08 0.08 99 1016.7
20210924031024 55 0.0 0.0 0.00 0.10 0.08 98 1016.6
20210924030028 56 0.0 0.0 0.00 0.15 0.08 97 1016.6
20210924025023 56 0.0 0.0 0.00 0.18 0.08 96 1016.7
20210924024022 57 0.0 0.0 0.00 0.20 0.08 96 1016.5
20210924023032 57 0.0 0.0 0.00 0.20 0.08 96 1016.4
20210924022028 57 0.0 0.0 0.00 0.20 0.08 97 1016.4
20210924021025 58 0.0 0.0 0.00 0.20 0.08 96 1016.4
20210924020018 58 0.0 0.0 0.00 0.20 0.08 98 1016.3
20210924015018 58 23 0.0 1.0 0.00 0.20 0.08 98 1016.2
20210924014030 58 113 0.0 1.0 0.00 0.20 0.08 99 1016.0
20210924013023 58 0.0 0.0 0.00 0.20 0.08 98 1016.0
20210924012033 59 0.0 0.0 0.00 0.20 0.08 98 1016.0
20210924011019 59 0.0 0.0 0.00 0.20 0.08 97 1015.8